JAL78 RPLL-RJTT

Flight info

Callsign JAL78
Flight time N/A
Altitude 35000
Route CAB2R CAB N884 ALBAX Y533 AZAMA Y57 SUKBO Y571 BILLY Y21 AKSEL
Aircraft B738/M-SDE2E3FGHIRWXY/LB1

Departure

Time 2026-05-05 01:04
Airport Ninoy Aquino International Airport (RPLL)

Arrival

Time N/A
Airport Tokyo Haneda International Airport (RJTT)
Time Latitude Longitude Altitude Speed Heading
2026-05-05 00:52 14.50374 121.00378 82 ft 0 kts 50°
2026-05-05 00:59 14.50373 121.00376 81 ft 2 kts 50°
2026-05-05 00:59 14.50363 121.00365 81 ft 2 kts 50°
2026-05-05 00:59 14.50353 121.00352 81 ft 2 kts 50°
2026-05-05 01:00 14.50344 121.00341 81 ft 2 kts 50°
2026-05-05 01:00 14.50334 121.00329 81 ft 2 kts 50°
2026-05-05 01:00 14.50324 121.00317 82 ft 2 kts 50°
2026-05-05 01:00 14.50314 121.00305 81 ft 2 kts 50°
2026-05-05 01:01 14.50311 121.00295 82 ft 1 kts 98°
2026-05-05 01:01 14.50318 121.00283 81 ft 2 kts 152°
2026-05-05 01:01 14.50327 121.00281 81 ft 1 kts 186°
2026-05-05 01:01 14.50333 121.00281 82 ft 0 kts 185°
2026-05-05 01:02 14.50301 121.00279 81 ft 5 kts 182°
2026-05-05 01:03 14.50242 121.00288 81 ft 15 kts 153°
2026-05-05 01:03 14.50142 121.00342 82 ft 15 kts 152°
2026-05-05 01:03 14.50054 121.00391 81 ft 13 kts 151°
2026-05-05 01:03 14.50029 121.00456 81 ft 9 kts 59°
2026-05-05 01:04 14.50104 121.00591 82 ft 51 kts 59°
2026-05-05 01:04 14.50920 121.02047 99 ft 172 kts 60°
2026-05-05 01:04 14.51514 121.03106 755 ft 174 kts 63°
2026-05-05 01:05 14.52104 121.04197 1485 ft 176 kts 61°
2026-05-05 01:05 14.52701 121.05265 2028 ft 186 kts 61°
2026-05-05 01:05 14.53380 121.06480 2521 ft 201 kts 62°
2026-05-05 01:05 14.54091 121.07764 3055 ft 215 kts 61°
2026-05-05 01:06 14.54869 121.09167 3578 ft 231 kts 62°
2026-05-05 01:06 14.55663 121.10578 4106 ft 246 kts 59°
2026-05-05 01:06 14.56916 121.11897 4665 ft 264 kts 35°
2026-05-05 01:06 14.58607 121.12708 5461 ft 272 kts 21°
2026-05-05 01:07 14.60455 121.13218 6248 ft 277 kts 16°
2026-05-05 01:07 14.62368 121.13660 7033 ft 281 kts 15°
2026-05-05 01:07 14.64279 121.14113 7780 ft 285 kts 17°
2026-05-05 01:07 14.66196 121.14595 8518 ft 289 kts 17°
2026-05-05 01:08 14.68187 121.15113 9241 ft 293 kts 18°
2026-05-05 01:08 14.70169 121.15636 9986 ft 296 kts 17°
2026-05-05 01:08 14.72170 121.16164 10561 ft 305 kts 17°
2026-05-05 01:08 14.74277 121.16720 10955 ft 320 kts 16°
2026-05-05 01:09 14.76504 121.17306 11379 ft 334 kts 16°
2026-05-05 01:09 14.78777 121.17902 12101 ft 336 kts 15°
2026-05-05 01:09 14.81043 121.18495 12806 ft 338 kts 15°
2026-05-05 01:09 14.83333 121.19095 13419 ft 342 kts 14°
2026-05-05 01:10 14.85644 121.19700 14060 ft 346 kts 15°
2026-05-05 01:10 14.88001 121.20339 14663 ft 350 kts 17°
2026-05-05 01:10 14.90355 121.21100 15209 ft 355 kts 19°
2026-05-05 01:10 14.92674 121.21925 15795 ft 359 kts 20°
2026-05-05 01:11 14.94949 121.22749 16340 ft 362 kts 20°
2026-05-05 01:11 14.97324 121.23598 16900 ft 366 kts 20°
2026-05-05 01:11 14.99765 121.24457 17442 ft 370 kts 19°
2026-05-05 01:11 15.02227 121.25311 17963 ft 374 kts 19°
2026-05-05 01:12 15.04726 121.26170 18482 ft 377 kts 19°
2026-05-05 01:12 15.07213 121.27020 18991 ft 380 kts 19°
2026-05-05 01:12 15.09768 121.27894 19481 ft 384 kts 19°
2026-05-05 01:12 15.12311 121.28762 19939 ft 388 kts 19°
2026-05-05 01:13 15.14893 121.29645 20429 ft 391 kts 19°
2026-05-05 01:13 15.17474 121.30528 20872 ft 394 kts 19°
2026-05-05 01:13 15.20117 121.31432 21402 ft 395 kts 18°
2026-05-05 01:13 15.22721 121.32324 21807 ft 399 kts 18°
2026-05-05 01:14 15.25403 121.33244 22231 ft 403 kts 18°
2026-05-05 01:14 15.26275 121.33543 22377 ft 404 kts 18°
2026-05-05 01:14 15.29868 121.34775 22935 ft 408 kts 18°
2026-05-05 01:14 15.33481 121.36014 23479 ft 413 kts 18°
2026-05-05 01:15 15.36207 121.36949 23915 ft 415 kts 18°
2026-05-05 01:15 15.38973 121.37899 24306 ft 418 kts 18°
2026-05-05 01:15 15.41735 121.38847 24691 ft 421 kts 18°
2026-05-05 01:15 15.44535 121.39809 25126 ft 422 kts 18°
2026-05-05 01:16 15.47339 121.40772 25453 ft 427 kts 18°
2026-05-05 01:16 15.50169 121.41745 25854 ft 429 kts 18°
2026-05-05 01:16 15.52992 121.42715 26201 ft 432 kts 18°
2026-05-05 01:16 15.55881 121.43709 26566 ft 434 kts 18°
2026-05-05 01:17 15.58753 121.44697 26934 ft 436 kts 18°
2026-05-05 01:17 15.61637 121.45689 27214 ft 440 kts 18°
2026-05-05 01:17 15.64562 121.46697 27616 ft 441 kts 18°
2026-05-05 01:17 15.67503 121.47709 27914 ft 444 kts 18°
2026-05-05 01:18 15.70466 121.48729 28242 ft 447 kts 18°
2026-05-05 01:18 15.73396 121.49738 28538 ft 450 kts 18°
2026-05-05 01:18 15.76390 121.50770 28891 ft 451 kts 17°
2026-05-05 01:18 15.79398 121.51807 29228 ft 453 kts 17°
2026-05-05 01:19 15.82380 121.52836 29563 ft 455 kts 17°
2026-05-05 01:19 15.85399 121.53877 29878 ft 457 kts 17°
2026-05-05 01:19 15.88424 121.54921 30237 ft 458 kts 17°
2026-05-05 01:19 15.91447 121.55965 30543 ft 459 kts 17°
2026-05-05 01:20 15.94547 121.57035 30857 ft 461 kts 16°
2026-05-05 01:20 15.97590 121.58086 31144 ft 463 kts 16°
2026-05-05 01:20 16.00635 121.59139 31459 ft 465 kts 16°
2026-05-05 01:20 16.03743 121.60213 31769 ft 466 kts 16°
2026-05-05 01:21 16.06829 121.61280 32072 ft 467 kts 15°
2026-05-05 01:21 16.09912 121.62345 32371 ft 469 kts 15°
2026-05-05 01:21 16.13019 121.63420 32650 ft 470 kts 15°
2026-05-05 01:21 16.16146 121.64503 33100 ft 468 kts 15°
2026-05-05 01:22 16.19237 121.65575 33569 ft 466 kts 15°
2026-05-05 01:22 16.22304 121.66638 33931 ft 466 kts 15°
2026-05-05 01:22 16.25396 121.67710 34290 ft 465 kts 15°
2026-05-05 01:22 16.28496 121.68785 34645 ft 464 kts 15°
2026-05-05 01:23 16.31552 121.69845 34980 ft 464 kts 15°
2026-05-05 01:23 16.34627 121.70911 35015 ft 468 kts 15°
2026-05-05 01:23 16.40888 121.73079 34995 ft 478 kts 15°
2026-05-05 01:24 16.47269 121.75293 34980 ft 484 kts 15°
2026-05-05 01:24 16.53685 121.77525 34976 ft 483 kts 15°
2026-05-05 01:25 16.60089 121.79755 34973 ft 482 kts 15°
2026-05-05 01:25 16.66468 121.81976 34971 ft 482 kts 15°
2026-05-05 01:26 16.72825 121.84190 34968 ft 482 kts 15°
2026-05-05 01:26 16.79240 121.86425 34966 ft 482 kts 15°
2026-05-05 01:27 16.85589 121.88638 34966 ft 482 kts 15°
2026-05-05 01:27 16.91985 121.90871 34969 ft 482 kts 15°
2026-05-05 01:28 16.98401 121.93111 34964 ft 482 kts 15°
2026-05-05 01:28 17.04782 121.95341 34968 ft 482 kts 15°
2026-05-05 01:29 17.11160 121.97572 34984 ft 483 kts 15°
2026-05-05 01:29 17.17492 121.99787 34992 ft 483 kts 15°
2026-05-05 01:30 17.23868 122.02020 35005 ft 483 kts 15°
2026-05-05 01:30 17.30238 122.04253 35015 ft 482 kts 15°
2026-05-05 01:31 17.36611 122.06489 35020 ft 483 kts 15°
2026-05-05 01:31 17.42984 122.08727 35023 ft 483 kts 15°
2026-05-05 01:32 17.49364 122.10967 35022 ft 483 kts 15°
2026-05-05 01:32 17.55743 122.13208 35013 ft 483 kts 14°
2026-05-05 01:33 17.62110 122.15448 35001 ft 483 kts 15°
2026-05-05 01:33 17.68520 122.17705 34990 ft 483 kts 14°
2026-05-05 01:34 17.74888 122.19948 34981 ft 483 kts 14°
2026-05-05 01:34 17.81315 122.22214 34972 ft 483 kts 14°
2026-05-05 01:35 17.87562 122.24818 34964 ft 487 kts 21°
2026-05-05 01:35 17.93672 122.27969 34963 ft 489 kts 23°
2026-05-05 01:36 17.99712 122.31223 34960 ft 489 kts 23°
2026-05-05 01:36 18.05763 122.34460 34966 ft 489 kts 23°
2026-05-05 01:37 18.11844 122.37672 34970 ft 489 kts 22°
2026-05-05 01:37 18.17967 122.40882 34972 ft 489 kts 22°
2026-05-05 01:38 18.24061 122.44067 34969 ft 489 kts 22°
2026-05-05 01:38 18.30127 122.47234 34964 ft 489 kts 22°
2026-05-05 01:39 18.36259 122.50437 34956 ft 489 kts 22°
2026-05-05 01:39 18.42362 122.53628 34953 ft 490 kts 22°
2026-05-05 01:40 18.48474 122.56825 34955 ft 489 kts 22°
2026-05-05 01:40 18.54541 122.60002 34952 ft 489 kts 22°
2026-05-05 01:41 18.60662 122.63210 34950 ft 491 kts 22°
2026-05-05 01:41 18.66750 122.66404 34950 ft 490 kts 22°
2026-05-05 01:42 18.72885 122.69624 34951 ft 490 kts 22°
2026-05-05 01:42 18.78986 122.72829 34949 ft 491 kts 22°
2026-05-05 01:43 18.85125 122.76060 34947 ft 491 kts 22°
2026-05-05 01:43 18.91212 122.79264 34946 ft 491 kts 22°
2026-05-05 01:44 18.97372 122.82507 34950 ft 491 kts 22°
2026-05-05 01:44 19.03488 122.85730 34946 ft 491 kts 22°
2026-05-05 01:45 19.09610 122.88959 34947 ft 492 kts 22°
2026-05-05 01:45 19.15735 122.92193 34948 ft 492 kts 22°
2026-05-05 01:46 19.21849 122.95423 34949 ft 492 kts 22°
2026-05-05 01:46 19.27940 122.98646 34950 ft 491 kts 22°
2026-05-05 01:47 19.34087 123.01899 34953 ft 492 kts 22°
2026-05-05 01:47 19.40188 123.05131 34955 ft 492 kts 22°
2026-05-05 01:48 19.46337 123.08392 34957 ft 491 kts 22°
2026-05-05 01:48 19.52422 123.11621 34958 ft 492 kts 22°
2026-05-05 01:49 19.58562 123.14881 34960 ft 492 kts 22°
2026-05-05 01:49 19.64709 123.18148 34959 ft 492 kts 22°
2026-05-05 01:50 19.70791 123.21385 34960 ft 491 kts 22°
2026-05-05 01:50 19.76895 123.24634 34962 ft 492 kts 22°
2026-05-05 01:51 19.83038 123.27908 34964 ft 492 kts 22°
2026-05-05 01:51 19.89138 123.31161 34964 ft 492 kts 22°
2026-05-05 01:52 19.95256 123.34430 34966 ft 491 kts 22°
2026-05-05 01:52 20.01377 123.37700 34967 ft 491 kts 22°
2026-05-05 01:53 20.07478 123.40962 34967 ft 492 kts 22°
2026-05-05 01:53 20.13600 123.44237 34966 ft 492 kts 22°
2026-05-05 01:54 20.19758 123.47536 34968 ft 493 kts 22°
2026-05-05 01:54 20.25857 123.50806 34967 ft 493 kts 22°
2026-05-05 01:55 20.32010 123.54108 34967 ft 492 kts 22°
2026-05-05 01:55 20.38097 123.57378 34966 ft 493 kts 22°
2026-05-05 01:56 20.44260 123.60693 34968 ft 493 kts 22°
2026-05-05 01:56 20.50352 123.63971 34968 ft 493 kts 22°
2026-05-05 01:57 20.56533 123.67300 34968 ft 494 kts 22°
2026-05-05 01:57 20.62654 123.70599 34967 ft 494 kts 22°
2026-05-05 01:58 20.68776 123.73904 34966 ft 494 kts 22°
2026-05-05 01:58 20.74959 123.77241 34966 ft 496 kts 22°
2026-05-05 01:59 20.81084 123.80553 34967 ft 494 kts 22°
2026-05-05 01:59 20.87236 123.83881 34966 ft 495 kts 22°
2026-05-05 02:00 20.93384 123.87209 34966 ft 496 kts 22°
2026-05-05 02:00 20.99578 123.90567 34967 ft 496 kts 22°
2026-05-05 02:01 21.05722 123.93895 34967 ft 497 kts 22°
2026-05-05 02:01 21.11870 123.97221 34968 ft 497 kts 22°
2026-05-05 02:02 21.18066 124.00576 34970 ft 497 kts 22°
2026-05-05 02:02 21.24229 124.03917 34971 ft 497 kts 22°
2026-05-05 02:03 21.30425 124.07278 34973 ft 497 kts 21°
2026-05-05 02:03 21.36621 124.10643 34973 ft 498 kts 21°
2026-05-05 02:04 21.42751 124.13978 34975 ft 497 kts 22°
2026-05-05 02:04 21.48952 124.17353 34975 ft 498 kts 22°
2026-05-05 02:05 21.55147 124.20727 34978 ft 498 kts 21°
2026-05-05 02:05 21.61331 124.24100 34978 ft 498 kts 21°
2026-05-05 02:06 21.67486 124.27459 34979 ft 498 kts 21°
2026-05-05 02:06 21.73704 124.30856 34981 ft 498 kts 21°
2026-05-05 02:07 21.79899 124.34244 34984 ft 500 kts 21°
2026-05-05 02:07 21.86070 124.37622 34985 ft 499 kts 21°
2026-05-05 02:08 21.92249 124.41009 34984 ft 499 kts 21°
2026-05-05 02:08 21.98455 124.44412 34987 ft 499 kts 21°
2026-05-05 02:09 22.04665 124.47822 34989 ft 500 kts 21°
2026-05-05 02:09 22.10831 124.51210 34993 ft 500 kts 21°
2026-05-05 02:10 22.17032 124.54623 34993 ft 499 kts 21°
2026-05-05 02:10 22.23213 124.58028 34995 ft 500 kts 21°
2026-05-05 02:11 22.29401 124.61440 34998 ft 500 kts 21°
2026-05-05 02:11 22.35608 124.64862 34996 ft 500 kts 21°
2026-05-05 02:12 22.44898 124.69996 35002 ft 501 kts 22°
2026-05-05 02:13 22.51112 124.73433 35003 ft 501 kts 21°
2026-05-05 02:13 22.57319 124.76869 35011 ft 501 kts 21°
2026-05-05 02:14 22.63539 124.80317 35012 ft 502 kts 21°
2026-05-05 02:14 22.69748 124.83762 35011 ft 502 kts 21°
2026-05-05 02:15 22.75955 124.87210 35014 ft 501 kts 21°
2026-05-05 02:15 22.82165 124.90664 35022 ft 501 kts 21°
2026-05-05 02:16 22.88361 124.94112 35022 ft 502 kts 21°
2026-05-05 02:16 22.94604 124.97589 35026 ft 501 kts 21°
2026-05-05 02:17 23.00781 125.01035 35028 ft 502 kts 21°
2026-05-05 02:17 23.06984 125.04498 35029 ft 502 kts 21°
2026-05-05 02:18 23.13197 125.07969 35030 ft 502 kts 21°
2026-05-05 02:18 23.19394 125.11435 35031 ft 503 kts 21°
2026-05-05 02:19 23.25596 125.14909 35031 ft 503 kts 21°
2026-05-05 02:19 23.31837 125.18408 35031 ft 504 kts 21°
2026-05-05 02:20 23.38075 125.21910 35029 ft 504 kts 21°
2026-05-05 02:20 23.44282 125.25397 35030 ft 505 kts 21°
2026-05-05 02:21 23.50553 125.28922 35031 ft 505 kts 21°
2026-05-05 02:21 23.56644 125.32778 35032 ft 511 kts 28°
2026-05-05 02:22 23.62354 125.37425 35033 ft 515 kts 34°
2026-05-05 02:22 23.67833 125.42447 35035 ft 517 kts 36°
2026-05-05 02:23 23.73281 125.47586 35035 ft 518 kts 36°
2026-05-05 02:23 23.78732 125.52736 35036 ft 518 kts 36°
2026-05-05 02:24 23.84153 125.57834 35041 ft 517 kts 36°
2026-05-05 02:24 23.89644 125.62974 35040 ft 518 kts 36°
2026-05-05 02:25 23.95088 125.68070 35042 ft 519 kts 36°
2026-05-05 02:25 24.00546 125.73180 35046 ft 519 kts 36°
2026-05-05 02:26 24.06021 125.78313 35046 ft 520 kts 36°
2026-05-05 02:26 24.11530 125.83484 35050 ft 519 kts 36°
2026-05-05 02:27 24.16981 125.88607 35050 ft 519 kts 36°
2026-05-05 02:27 24.22450 125.93752 35052 ft 521 kts 36°
2026-05-05 02:28 24.27940 125.98923 35055 ft 519 kts 36°
2026-05-05 02:28 24.33419 126.04092 35056 ft 521 kts 36°
2026-05-05 02:29 24.38886 126.09255 35058 ft 521 kts 36°
2026-05-05 02:29 24.44377 126.14446 35058 ft 522 kts 36°
2026-05-05 02:30 24.49859 126.19634 35061 ft 522 kts 36°
2026-05-05 02:30 24.55363 126.24850 35061 ft 524 kts 36°
2026-05-05 02:31 24.60856 126.30064 35063 ft 522 kts 36°
2026-05-05 02:31 24.66363 126.35294 35065 ft 524 kts 36°
2026-05-05 02:32 24.71885 126.40546 35067 ft 524 kts 36°
2026-05-05 02:32 24.77367 126.45766 35066 ft 524 kts 36°
2026-05-05 02:33 24.82859 126.51002 35066 ft 524 kts 36°
2026-05-05 02:33 24.88395 126.56284 35068 ft 526 kts 36°
2026-05-05 02:34 24.93896 126.61539 35069 ft 525 kts 36°
2026-05-05 02:34 24.99376 126.66784 35069 ft 526 kts 36°
2026-05-05 02:35 25.04909 126.72087 35073 ft 527 kts 36°
2026-05-05 02:35 25.10409 126.77364 35073 ft 526 kts 36°
2026-05-05 02:36 25.15939 126.82674 35075 ft 527 kts 36°
2026-05-05 02:36 25.21449 126.87972 35080 ft 528 kts 36°
2026-05-05 02:37 25.26955 126.93272 35081 ft 527 kts 36°
2026-05-05 02:37 25.32461 126.98580 35083 ft 528 kts 36°
2026-05-05 02:38 25.37979 127.03907 35092 ft 528 kts 36°
2026-05-05 02:38 25.43528 127.09270 35089 ft 528 kts 36°
2026-05-05 02:39 25.49028 127.14592 35096 ft 529 kts 36°
2026-05-05 02:39 25.54553 127.19945 35096 ft 530 kts 36°
2026-05-05 02:40 25.60106 127.25333 35101 ft 529 kts 36°
2026-05-05 02:40 25.65645 127.30710 35105 ft 532 kts 36°
2026-05-05 02:41 25.71147 127.36062 35107 ft 530 kts 36°
2026-05-05 02:41 25.76693 127.41464 35105 ft 530 kts 36°
2026-05-05 02:42 25.82246 127.46882 35116 ft 531 kts 36°
2026-05-05 02:42 25.87765 127.52268 35115 ft 531 kts 36°
2026-05-05 02:43 25.93323 127.57703 35118 ft 532 kts 36°
2026-05-05 02:43 25.98858 127.63119 35130 ft 533 kts 36°
2026-05-05 02:44 26.04419 127.68567 35126 ft 533 kts 36°
2026-05-05 02:44 26.09971 127.74016 35129 ft 533 kts 36°
2026-05-05 02:45 26.15496 127.79446 35134 ft 533 kts 36°
2026-05-05 02:45 26.21093 127.84837 35137 ft 533 kts 35°
2026-05-05 02:46 26.26742 127.90084 35136 ft 532 kts 34°
2026-05-05 02:46 26.32451 127.95351 35136 ft 532 kts 34°
2026-05-05 02:47 26.38128 128.00618 35136 ft 533 kts 34°
2026-05-05 02:47 26.43795 128.05907 35135 ft 534 kts 34°
2026-05-05 02:48 26.49466 128.11221 35135 ft 533 kts 34°
2026-05-05 02:48 26.55109 128.16524 35131 ft 533 kts 34°
2026-05-05 02:49 26.60787 128.21872 35132 ft 534 kts 34°
2026-05-05 02:49 26.66452 128.27212 35134 ft 533 kts 34°
2026-05-05 02:50 26.72101 128.32541 35134 ft 535 kts 34°
2026-05-05 02:50 26.77789 128.37911 35135 ft 533 kts 34°
2026-05-05 02:51 26.83438 128.43256 35133 ft 535 kts 34°
2026-05-05 02:51 26.89098 128.48616 35131 ft 534 kts 34°
2026-05-05 02:52 26.94759 128.53986 35132 ft 534 kts 34°
2026-05-05 02:52 27.00365 128.59308 35132 ft 534 kts 34°
2026-05-05 02:53 27.06039 128.64699 35132 ft 535 kts 34°
2026-05-05 02:53 27.11701 128.70088 35134 ft 534 kts 34°
2026-05-05 02:54 27.17308 128.75430 35135 ft 533 kts 34°
2026-05-05 02:54 27.22965 128.80826 35134 ft 534 kts 35°
2026-05-05 02:55 27.28615 128.86224 35132 ft 533 kts 35°
2026-05-05 02:55 27.34208 128.91579 35132 ft 533 kts 35°
2026-05-05 02:56 27.39820 128.96956 35134 ft 535 kts 35°
2026-05-05 02:56 27.45443 129.02359 35134 ft 533 kts 34°
2026-05-05 02:57 27.51029 129.07802 35133 ft 535 kts 37°
2026-05-05 02:57 27.56224 129.13760 35134 ft 539 kts 43°
2026-05-05 02:58 27.61076 129.20195 35133 ft 541 kts 46°
2026-05-05 02:58 27.65797 129.26735 35134 ft 540 kts 47°
2026-05-05 02:59 27.70518 129.33295 35132 ft 543 kts 46°
2026-05-05 02:59 27.75263 129.39845 35132 ft 538 kts 46°
2026-05-05 03:00 27.80013 129.46364 35133 ft 541 kts 46°
2026-05-05 03:00 27.84749 129.52849 35132 ft 541 kts 46°
2026-05-05 03:01 27.89497 129.59355 35133 ft 541 kts 46°
2026-05-05 03:01 27.94276 129.65915 35132 ft 541 kts 47°
2026-05-05 03:02 27.99009 129.72424 35134 ft 543 kts 46°
2026-05-05 03:02 28.03763 129.78975 35132 ft 543 kts 46°
2026-05-05 03:03 28.08528 129.85551 35133 ft 542 kts 46°
2026-05-05 03:03 28.13299 129.92142 35132 ft 544 kts 46°
2026-05-05 03:04 28.18042 129.98708 35133 ft 544 kts 47°
2026-05-05 03:04 28.22828 130.05354 35131 ft 544 kts 46°
2026-05-05 03:05 28.27564 130.11934 35130 ft 547 kts 46°
2026-05-05 03:05 28.32337 130.18579 35132 ft 546 kts 46°
2026-05-05 03:06 28.37086 130.25194 35133 ft 547 kts 47°
2026-05-05 03:06 28.41886 130.31880 35125 ft 547 kts 46°
2026-05-05 03:07 28.46635 130.38510 35129 ft 546 kts 46°
2026-05-05 03:07 28.51395 130.45166 35127 ft 548 kts 47°
2026-05-05 03:08 28.56170 130.51857 35128 ft 548 kts 47°
2026-05-05 03:08 28.60947 130.58571 35126 ft 549 kts 46°
2026-05-05 03:09 28.65728 130.65300 35127 ft 548 kts 47°
2026-05-05 03:09 28.70521 130.72054 35128 ft 549 kts 47°
2026-05-05 03:10 28.75285 130.78770 35127 ft 548 kts 47°
2026-05-05 03:10 28.80023 130.85466 35129 ft 549 kts 47°
2026-05-05 03:11 28.84805 130.92236 35131 ft 546 kts 47°
2026-05-05 03:11 28.89551 130.98964 35128 ft 549 kts 47°
2026-05-05 03:12 28.94320 131.05730 35132 ft 548 kts 48°
2026-05-05 03:12 28.99070 131.12482 35133 ft 547 kts 47°
2026-05-05 03:13 29.03810 131.19234 35132 ft 549 kts 47°
2026-05-05 03:13 29.08571 131.26028 35133 ft 548 kts 47°
2026-05-05 03:14 29.13321 131.32811 35133 ft 551 kts 47°
2026-05-05 03:14 29.18060 131.39594 35135 ft 549 kts 48°
2026-05-05 03:15 29.22830 131.46431 35137 ft 551 kts 47°
2026-05-05 03:15 29.27574 131.53236 35133 ft 552 kts 48°
2026-05-05 03:16 29.32366 131.60129 35134 ft 552 kts 47°
2026-05-05 03:16 29.37123 131.66988 35133 ft 552 kts 47°
2026-05-05 03:17 29.41872 131.73840 35132 ft 554 kts 48°
2026-05-05 03:17 29.46658 131.80757 35136 ft 555 kts 48°
2026-05-05 03:18 29.51451 131.87694 35130 ft 555 kts 47°
2026-05-05 03:18 29.56199 131.94585 35133 ft 555 kts 49°
2026-05-05 03:19 29.63344 132.04988 35133 ft 557 kts 49°
2026-05-05 03:19 29.68103 132.11881 35134 ft 555 kts 47°
2026-05-05 03:20 29.72968 132.18736 35132 ft 555 kts 46°
2026-05-05 03:20 29.77828 132.25507 35133 ft 557 kts 47°
2026-05-05 03:21 29.82680 132.32277 35131 ft 558 kts 46°
2026-05-05 03:21 29.87537 132.39085 35134 ft 558 kts 47°
2026-05-05 03:22 29.92380 132.45909 35135 ft 555 kts 47°
2026-05-05 03:22 29.97249 132.52794 35135 ft 560 kts 47°
2026-05-05 03:23 30.02106 132.59672 35133 ft 558 kts 47°
2026-05-05 03:23 30.06955 132.66548 35137 ft 558 kts 47°
2026-05-05 03:24 30.11772 132.73401 35139 ft 555 kts 47°
2026-05-05 03:24 30.16649 132.80339 35138 ft 559 kts 47°
2026-05-05 03:25 30.21451 132.87195 35141 ft 555 kts 47°
2026-05-05 03:25 30.26274 132.94089 35145 ft 557 kts 47°
2026-05-05 03:26 30.31122 133.01015 35145 ft 558 kts 48°
2026-05-05 03:26 30.35971 133.07954 35148 ft 559 kts 47°
2026-05-05 03:27 30.40768 133.14847 35154 ft 557 kts 47°
2026-05-05 03:27 30.45600 133.21802 35155 ft 561 kts 48°
2026-05-05 03:28 30.50446 133.28784 35159 ft 561 kts 47°
2026-05-05 03:28 30.55307 133.35806 35162 ft 560 kts 47°
2026-05-05 03:29 30.60185 133.42853 35162 ft 562 kts 47°
2026-05-05 03:29 30.65058 133.49907 35165 ft 563 kts 48°
2026-05-05 03:30 30.69894 133.56924 35168 ft 561 kts 47°
2026-05-05 03:30 30.74773 133.64011 35170 ft 567 kts 48°
2026-05-05 03:31 30.79619 133.71071 35171 ft 563 kts 48°
2026-05-05 03:31 30.84495 133.78189 35170 ft 568 kts 48°
2026-05-05 03:32 30.89380 133.85323 35174 ft 566 kts 49°
2026-05-05 03:32 30.94273 133.92474 35172 ft 571 kts 49°
2026-05-05 03:33 30.99180 133.99663 35174 ft 568 kts 49°
2026-05-05 03:33 31.04058 134.06831 35174 ft 569 kts 49°
2026-05-05 03:34 31.08979 134.14069 35173 ft 568 kts 49°
2026-05-05 03:34 31.13799 134.21176 35174 ft 567 kts 49°
2026-05-05 03:35 31.18666 134.28366 35173 ft 567 kts 49°
2026-05-05 03:35 31.21901 134.33154 35173 ft 569 kts 48°